Regional Weather Roundup
Issued by NWS

Home | Current Version | Previous Version | Text Only | Print | Product List | Glossary Off
Versions: 1 2 3 4 5 6 7 8 9 10 11 12 13 14 15 16 17 18 19 20 21 22 23 24 25 26 27

000
ASUS45 KBOU 281407
RWRCO

WEATHER ROUNDUP FOR COLORADO
NATIONAL WEATHER SERVICE DENVER/BOULDER CO
800 AM MDT THU APR 28 2016

NOTE: "FAIR" INDICATES FEW OR NO CLOUDS BELOW 12000 FEET WITH NO
SIGNIFICANT WEATHER AND/OR OBSTRUCTIONS TO VISIBILITY.

COZ001>005-013-030-031-281500-
...NORTHWEST COLORADO...

CITY           SKY/WX    TMP DP  RH WIND       PRES   REMARKS
CRAIG          CLOUDY    37  30  75 N3        29.76S
HAYDEN         PTSUNNY   36  25  64 E14       29.75S
MEEKER         RAIN      38  34  85 N7        29.76R FOG
MOUNT WERNER   NOT AVBL
STEAMBOAT SPGS FAIR      32  27  83 CALM      29.78S
WALDEN         PTSUNNY   30  27  86 N8        29.87S WCI  23
$$

COZ006>008-011-281500-
...WEST CENTRAL VALLEYS...

CITY           SKY/WX    TMP DP  RH WIND       PRES   REMARKS
GRAND JUNCTION LGT RAIN  40  38  93 N7        29.76R
MONTROSE       LGT RAIN  42  40  92 E3        29.78R
EAGLE          PTSUNNY   37  30  75 CALM      29.81S
RIFLE          CLOUDY    43  37  79 W8        29.74R
DELTA          NOT AVBL
NUCLA          NOT AVBL
$$

COZ017>023-064>068-281500-
...SOUTHWEST COLORADO...

CITY           SKY/WX    TMP DP  RH WIND       PRES   REMARKS
DURANGO        CLOUDY    44  30  57 SE15      29.81R
CORTEZ         PTSUNNY   45  37  73 NE6       29.75S
PAGOSA SPRINGS CLOUDY    40  31  68 SW3       29.88S
TELLURIDE      LGT SNOW  33  32  95 E5        29.86R WCI  29
WOLF CREEK PAS NOT AVBL
$$

COZ009-010-012-014-032>034-037-058>063-281500-
...CENTRAL COLORADO...

CITY           SKY/WX    TMP DP  RH WIND       PRES   REMARKS
ASPEN          CLOUDY    34  28  79 NW6       29.76R WCI  29
BUENA VISTA    SNOW      32  30  94 E5        29.90R VSB 1/2 WCI  27
COPPER MTN     NOT AVBL
BERTHOUD PASS  CLOUDY    18   9  68 SE28      29.90S WCI  -1
COTTONWOOD PAS LGT SNOW  30  28  93 E17       29.89R VSB 1   WCI  18
GUNNISON       FAIR      41  30  65 S3        29.81S
KREMMLING      LGT SNOW  30  27  86 CALM      29.85S
LEADVILLE      SNOW      27  27 100 S13       29.84S VSB 1/2 WCI  16
MONARCH PASS   FOG       21  19  93 SE8       30.02R VSB<1/4 WCI  12
SALIDA         CLOUDY    33  31  91 SE16G23   29.97R WCI  23
SUNLIGHT       LGT SNOW  30  30 100 SE5       29.86R WCI  25
WILKERSON PASS SNOW     N/A N/A N/A S9        29.95R VSB 1/2
$$

COZ069>075-281500-
...SAN LUIS VALLEY/SANGRE DE CRISTO MOUNTAINS...

CITY           SKY/WX    TMP DP  RH WIND       PRES   REMARKS
ALAMOSA        CLOUDY    41  36  82 S13       29.87R
LA VETA PASS   LGT SNOW  28  28 100 CALM      29.94S
SAGUACHE       CLOUDY    37  36  93 SE10      29.86S
$$

COZ035-036-038>040-281500-
...NORTHERN COLORADO FRONT RANGE...

CITY           SKY/WX    TMP DP  RH WIND       PRES   REMARKS
DENVER INTL AP CLOUDY    36  25  64 E6        29.96R
DMNS CITY PARK   N/A     37  26  65 E13G18    29.97R
AURORA         CLOUDY    35  28  73 E7        29.96S WCI  30
FRONT RANGE AP CLOUDY    36  28  75 NE5       29.97
ERIE MUNI ARPT CLOUDY    37  29  72 E10       29.97R
BOULDER MUN AP CLOUDY    36  32  87 NE3       29.96S
CENTENNIAL     CLOUDY    35  27  72 E9        29.95R WCI  28
BROOMFIELD     CLOUDY    36  28  75 E9        29.96R
FORT COLLINS   CLOUDY    36  28  75 SE7       29.98R
LONGMONT       CLOUDY    40  31  72 SE5       29.99R HAZE
$$

COZ041-046-047-076>085-087-088-281500-
...PIKES PEAK/PALMER DIVIDE AND SOUTHERN FOOTHILLS...

CITY           SKY/WX    TMP DP  RH WIND       PRES   REMARKS
COLO. SPRINGS  LGT SNOW  33  30  88 S12       29.97S VSB 1   WCI  24
A. F. ACADEMY  LGT SNOW  34  30  86 SE14      29.94R WCI  24
SCHRIEVER AFB  NOT AVBL
ELLICOTT       NOT AVBL
FALCON         LGT SNOW  32  30  91 S10       29.97R WCI  24
FORT CARSON    LGT SNOW  33  32  96 S9        29.96R VSB 1   WCI  25
LIMON          CLOUDY    35  27  72 N5        29.98R WCI  31
MONUMENT HILL  CLOUDY    30  28  93 SE8       29.96R WCI  23
TRINIDAD       CLOUDY    40  29  64 NE10      29.94R
$$

COZ042>045-048>051-090-091-281500-
...NORTHEAST COLORADO...

CITY           SKY/WX    TMP DP  RH WIND       PRES   REMARKS
GREELEY ARPT   CLOUDY    37  30  75 SE8       30.00R
AKRON          CLOUDY    33  29  85 N7        29.99R WCI  27
BURLINGTON     CLOUDY    38  30  73 N10       29.99R
WRAY           NOT AVBL
STERLING       FAIR      36  30  80 NE5       30.00R
HOLYOKE        NOT AVBL
FORT MORGAN    CLOUDY    36  30  78 NE3       30.00R
$$

COZ086-089-092>099-281500-
...SOUTHEAST COLORADO...

CITY           SKY/WX    TMP DP  RH WIND       PRES   REMARKS
PUEBLO         LGT RAIN  39  31  72 E10       29.98R
LA JUNTA       CLOUDY    43  29  57 E10       29.98R
LAMAR          CLOUDY    43  32  65 NE10      29.98R
SPRINGFIELD      N/A     39  31  72 NE16      29.96S
$$




USA.gov is the U.S. government's official web portal to all federal, state and local government web resources and services.